sat.trackr.live / text

‹ back to catalog

STARLINK-34168

NORAD 64079 · 2025-107R

PAYLOAD ACTIVE UNKNOWN

§ Identity

Operator
Country
US
Launch date
2025-05-21
Launch site
AFETR
Launch vehicle
Mass (kg)
RCS (m²)

Purposes: comms

External: N2YO · Heavens-Above · Gunter

§ Orbital elements

Epoch: 2026-09-20T03:32:25.720224Z

Period
94.27 min
Inclination
42.9979°
Eccentricity
0.0001232
Mean motion
15.27589141 rev/d
Perigee alt
482.2 km
Apogee alt
483.9 km
Semi-major
6,861.2 km
B*
3.3837e-4
RAAN
183.0555°
Arg perigee
269.1165°
Mean anomaly
90.9545°
Rev number
7,586

§ Raw data

STARLINK-341681 64079U 25107R   26263.14751991  .00009063  00000+0  33837-3 0  99912 64079  42.9979 183.0555 0001232 269.1165  90.9545 15.27589141 75864

JSON: /api/v1/satellites/64079 · /tle

For live sub-satellite position, see the globe view (requires WebGL).

§ Visibility from observer

Set your observer location to see the next 7 days of passes ≥ 10°. The values pass through the URL so the page stays shareable.

No JS? Fill the form by hand. The geolocation button needs JavaScript.